Regional Weather Roundup
Issued by NWS Huntsville, AL

Home | Current Version | Previous Version | Text Only | Print | Product List | Glossary On
Versions: 1 2 3 4 5 6 7 8 9 10 11 12 13 14 15 16 17 18 19 20 21 22 23 24 25 26 27 28 29 30 31 32 33 34 35 36 37 38 39 40 41 42 43 44 45 46 47 48 49 50
009
ASUS44 KHUN 302310
RWRHUN

WEATHER ROUNDUP FOR THE TENNESSEE VALLEY
NATIONAL WEATHER SERVICE HUNTSVILLE AL
600 PM CDT SAT APR 30 2016

ALZ001>004-010000-
NORTHWEST ALABAMA

CITY           SKY/WX    TMP DP  RH WIND       PRES   REMARKS
RUSSELLVILLE     N/A     70 N/A N/A MISG        N/A
SHOALS AIRPORT NOT AVBL
SHOALS TVA RES   N/A     70 N/A N/A MISG        N/A
$$

ALZ005>007-016-010000-
NORTH CENTRAL ALABAMA

CITY           SKY/WX    TMP DP  RH WIND       PRES   REMARKS
CULLMAN AG STN   N/A     77 N/A N/A SW7         N/A
DECATUR AP     CLOUDY    69  65  86 CALM      29.88F
HUNTSVILLE AP  CLOUDY    74  65  73 N8        29.88R
HUN NWS/UAH      N/A     77  64  62 NW3         N/A
MERIDIANVILLE  PTSUNNY   72  63  73 NW6       29.88R
REDSTONE ARSN  CLOUDY    76  67  75 NW6       29.88R
VINEMONT AP    FAIR      76  65  67 S8        29.91S
$$

ALZ008>010-010000-
NORTHEAST ALABAMA

CITY           SKY/WX    TMP DP  RH WIND       PRES   REMARKS
ALBERTVILLE    MOSUNNY   79  70  73 S6        29.89S
FORT PAYNE     CLOUDY    79  59  50 SW12      29.88S
SCOTTSBORO AP  CLOUDY    75  68  78 S7        29.88R
SCOTTSBORO HCN   N/A     79 N/A N/A MISG        N/A
VALLEY HEAD      N/A     81 N/A N/A MISG        N/A
$$

TNZ076-096-097-010000-
SOUTHEASTERN MIDDLE TENNESSEE

CITY           SKY/WX    TMP DP  RH WIND       PRES   REMARKS
TULLAHOMA      PTSUNNY   70  70 100 VRB5      29.90F
WINCHESTER     MOSUNNY   72  66  83 SE3       29.89F
$$

...SURROUNDING SITES...

CITY           SKY/WX    TMP DP  RH WIND       PRES   REMARKS
ATLANTA        TSTM      73  64  73 S10       29.93S
ANNISTON       PTSUNNY   82  64  54 SW7       29.90R
BIRMINGHAM     CLOUDY    80  66  62 S14       29.91S
CHATTANOOGA    CLOUDY    75  67  76 CALM      29.90R
DALTON         CLOUDY    68  68 100 NE3       29.90S
GADSDEN        CLOUDY    80  68  66 SW6       29.89R
GOLDEN TRNGL   PTSUNNY   75  64  69 S16G32    29.77F
HALEYVILLE     FAIR      72  67  84 S9        29.86F
JACKSON TN     PTSUNNY   72  63  73 S5        29.83R
MEMPHIS        MOSUNNY   76  63  64 SW6       29.80R
NASHVILLE      LGT RAIN  70  66  87 SE7       29.88S
OXFORD MS      FAIR      70  63  78 SE8       29.82R
ROME           CLOUDY    79  62  56 NW12G20   29.87R
SAVANNAH       SUNNY     72  66  83 S9        29.79F
TUPELO         CLOUDY    73  67  81 E5        29.81S
TUSCALOOSA     CLOUDY    77  69  76 S8        29.88R
$$

...GULF COAST WEATHER...

CITY           SKY/WX    TMP DP  RH WIND       PRES   REMARKS
GULFPORT       RAIN      69  67  93 NW13      29.91R FOG
PASCAGOULA     CLOUDY    76  73  91 SE7       29.89F
MOBILE         CLOUDY    76  74  93 S9        29.91S
GULF SHORES    CLOUDY    76  74  95 E14       29.91S
DESTIN         PTSUNNY   79  72  79 SE9       29.91R
PANAMA CITY    CLOUDY    79  72  77 S10       29.92R
APPALACHICOLA  CLOUDY    78  74  87 SE10      29.92S
$$





USA.gov is the U.S. government's official web portal to all federal, state and local government web resources and services.